Torna al catalogo

STARLINK-3366

AttivoComunicazioniVLEO
NORAD 51104·PAYLOAD·🇺🇸 United States

Lanciato Jan 19, 2022 da Cape Canaveral Space Force Station

Loading…

Prossimi Passaggi (prossime 24 ore)

TLE

AggiornatoSource: CelesTrak SupGP

Epoca: Sep 15, 2026, 02:35 UTC

1 51104C 22005A   26258.10812500  .00060767  00000+0  26652-2 0  2586
2 51104  53.1976 155.8771 0001629  87.9518 131.5575 15.21422720    18

Traccia STARLINK-3366 in tempo reale con AllMySat

Download on the App Store